Regional Weather Roundup
Issued by NWS

Home | Current Version | Previous Version | Text Only | Print | Product List | Glossary On
Versions: 1 2 3 4 5 6 7 8 9 10 11 12 13 14 15 16 17 18 19 20 21 22 23 24 25 26 27 28 29 30 31 32 33 34 35 36 37 38 39 40 41 42 43 44 45 46 47 48 49 50
000
ASUS43 KOAX 192002
RWRNE

WEATHER ROUNDUP FOR NEBRASKA
NATIONAL WEATHER SERVICE OMAHA NE
300 PM CDT SUN APR 19 2015

NOTES: SATELLITE DATA IS BEING USED TO AUGMENT CLOUD COVER ABOVE
       12000 FEET.
       "FAIR" INDICATES FEW OR NO CLOUDS BELOW 12,000 FEET WITH NO
       SIGNIFICANT WEATHER AND/OR OBSTRUCTIONS TO VISIBILITY.

  * THESE STATIONS DO NOT REPORT WEATHER SUCH AS RAIN...SNOW OR FOG.

NEZ001>004-019>022-054>056-192100-
NEBRASKA PANHANDLE

CITY           SKY/WX    TMP DP  RH WIND       PRES   REMARKS
SCOTTSBLUFF    PTSUNNY   49  22  34 NW28G35   30.06F
ALLIANCE       MOSUNNY   50  23  34 N26G37    30.01F
CHADRON        MOSUNNY   51  25  36 NW18G33   30.03F
SIDNEY         PTSUNNY   49  24  37 NW28G35   30.05F
$$

NEZ057>060-069>072-079>082-192100-
SOUTHWEST NEBRASKA

CITY           SKY/WX    TMP DP  RH WIND       PRES   REMARKS
NORTH PLATTE   PTSUNNY   53  24  32 NW23G36   29.96F
IMPERIAL       PTSUNNY   52  24  33 N25G37    30.00F
LEXINGTON      PTSUNNY   53  33  47 N26G36    29.92S
MCCOOK         PTSUNNY   54  23  30 N29G39    29.96F
$$

NEZ005>010-023>029-035>040-094-192100-
NORTH CENTRAL NEBRASKA

CITY           SKY/WX    TMP DP  RH WIND       PRES   REMARKS
VALENTINE      CLOUDY    52  27  38 N28G39    29.94F
AINSWORTH      CLOUDY    51  30  44 N25G36    29.92S
BROKEN BOW     PTSUNNY   54  30  40 N31G39    29.90F
ORD            CLOUDY    52  28  39 NW29G39   29.87F
$$

NEZ041-046>049-061>064-073>077-083>087-192100-
SOUTH CENTRAL NEBRASKA

CITY           SKY/WX    TMP DP  RH WIND       PRES   REMARKS
GRAND ISLAND   CLOUDY    54  30  40 NW26G37   29.86F
HASTINGS       CLOUDY    53  33  46 N31G38    29.87F
KEARNEY *        N/A    N/A N/A N/A MISG        N/A
YORK           CLOUDY    54  36  50 N20G31    29.81F
$$

NEZ011>018-030>034-042>045-192100-
NORTHEAST NEBRASKA

CITY           SKY/WX    TMP DP  RH WIND       PRES   REMARKS
BLAIR          DRIZZLE   49  45  85 NW29G39   29.72R
COLUMBUS *     CLOUDY    54  34  47 N23G32    29.81F
FREMONT        LGT RAIN  49  46  87 NW17G28   29.77S
TEKAMAH        LGT RAIN  50  46  86 NW25      29.74F
$$

NEZ050>053-065>068-078-088>093-192100-
SOUTHEAST NEBRASKA

CITY           SKY/WX    TMP DP  RH WIND       PRES   REMARKS
LINCOLN        CLOUDY    52  42  69 N26G35    29.78R
OMAHA EPPLEY   LGT RAIN  51  47  86 NW23G35   29.71S
FALLS CITY     CLOUDY    53  48  83 NW26G32   29.69S
PLATTSMOUTH    LGT RAIN  50  45  85 NW23G31   29.72R
$$

NEZ044-045-051>053-067-192100-
OMAHA AREA

CITY           SKY/WX    TMP DP  RH WIND       PRES   REMARKS
OMAHA EPPLEY   LGT RAIN  51  47  86 NW23G35   29.71S
BLAIR          DRIZZLE   49  45  85 NW29G39   29.72R
FREMONT        LGT RAIN  49  46  87 NW17G28   29.77S
OFFUTT AFB     LGT RAIN  51  47  87 NW18G26   29.71R
PLATTSMOUTH    LGT RAIN  50  45  85 NW23G31   29.72R
$$


USA.gov is the U.S. government's official web portal to all federal, state and local government web resources and services.